Theta_e
314 306 304 304 305 307 309 309 308 309 309 308 308 307 308 309 311 318 320 324 326 319 314 315 314 316 324 327 329 332 333 332 332 334 335 335 336 336 334 338 336 339 341 343 346 346 347 348 345 347 347 346 347 348 349 347 347 348 348 349 351 352 352 353 352 350 350 348 349 350 349 348 352 352 351 351 351 349 350 347 353 357 359 358 359 359
312 305 305 308 309 309 309 310 310 309 309 307 306 306 305 309 306 318 319 324 329 318 314 315 313 319 323 327 330 334 332 330 332 332 334 335 336 338 335 336 338 340 344 345 344 347 346 344 347 346 346 347 344 347 348 348 348 349 349 350 349 352 352 352 352 351 351 351 351 350 349 349 350 351 349 350 351 349 352 350 353 355 356 357 361 360
305 303 307 309 311 311 310 309 309 307 306 306 305 305 304 305 310 317 323 325 327 320 314 316 313 313 326 329 332 332 332 333 336 337 337 338 337 335 336 337 337 340 341 341 342 345 342 345 347 346 346 347 346 347 347 348 348 349 349 352 352 352 351 351 352 353 352 353 354 354 352 350 349 351 352 348 349 350 351 349 350 355 354 356 360 360
302 305 309 312 311 309 309 309 307 307 307 304 304 302 301 308 304 304 321 324 328 321 313 313 312 315 327 331 331 333 333 334 338 339 338 339 337 338 335 337 338 338 339 340 340 340 344 346 348 349 346 346 345 347 346 347 348 349 351 352 352 351 352 352 352 353 355 355 356 357 355 355 356 349 353 355 358 357 355 346 349 349 352 359 360 355
305 309 313 312 311 308 306 307 306 305 303 305 305 303 303 304 306 306 317 319 322 323 322 317 315 314 320 321 325 330 333 333 335 336 336 338 340 341 339 337 337 340 338 339 340 343 346 346 347 346 346 347 346 346 346 346 347 349 349 352 353 352 353 352 355 354 354 355 354 354 353 352 352 352 354 355 354 355 355 353 349 348 355 357 358 357
307 311 312 310 309 309 307 305 306 305 302 304 306 306 305 306 306 306 310 315 313 310 318 318 306 307 318 322 321 324 327 327 332 332 332 334 335 336 336 335 339 341 339 340 340 340 342 344 346 344 345 346 346 346 347 348 350 350 351 351 353 353 355 352 354 354 353 354 351 349 346 342 344 344 347 350 346 348 348 349 351 349 354 356 354 356
308 311 311 308 307 307 307 306 308 307 303 302 304 308 307 307 306 306 306 307 302 301 316 321 306 304 314 316 320 324 324 324 329 329 330 332 333 334 335 335 337 339 341 342 343 342 341 343 345 345 344 344 344 346 348 349 349 351 353 351 351 352 353 352 353 354 353 352 351 350 346 343 345 345 347 352 351 348 349 351 348 351 352 355 354 353
310 310 309 309 308 307 307 305 308 308 304 302 309 313 311 308 306 306 307 307 306 315 319 319 315 306 306 314 321 322 322 323 325 327 329 331 331 333 333 335 336 337 338 342 342 341 342 344 345 342 345 345 346 347 350 348 349 348 353 355 353 355 355 351 352 353 354 352 352 350 348 346 348 345 347 349 351 351 352 350 347 349 350 354 359 357
310 309 309 307 308 307 306 308 310 309 305 307 312 313 312 312 311 311 310 308 311 309 309 310 317 306 306 315 323 323 320 321 321 326 328 330 332 332 333 334 336 340 339 338 339 342 344 342 342 346 343 348 349 349 347 347 348 350 351 353 354 356 353 352 354 354 354 354 353 351 349 349 348 349 350 350 350 348 349 346 348 351 350 355 360 359
311 310 310 309 307 306 310 311 312 310 306 311 313 314 313 313 313 312 309 310 310 307 303 308 312 303 306 313 316 321 316 318 320 323 327 330 331 332 335 337 339 339 342 343 344 345 346 348 346 346 347 345 344 347 346 349 349 350 351 351 351 352 353 352 354 354 356 355 356 353 351 349 350 351 349 348 347 349 353 350 354 355 355 351 356 358
311 316 315 309 308 309 311 312 312 312 311 314 312 310 312 311 310 312 313 313 309 303 305 310 311 308 302 310 315 316 317 320 321 322 327 329 333 335 337 337 335 338 341 341 342 344 345 348 349 349 345 346 346 346 348 350 348 349 349 351 350 351 353 354 353 353 353 355 355 352 353 353 352 350 348 347 349 355 356 354 352 355 358 353 354 356
310 311 310 310 312 311 312 309 313 313 313 311 308 309 309 309 312 308 309 311 302 300 306 308 311 311 300 307 315 320 323 323 324 322 324 327 329 330 333 339 335 337 340 342 344 343 343 345 347 346 343 341 345 345 347 348 346 348 349 351 351 353 354 353 352 352 350 351 353 353 354 354 354 349 344 349 349 352 354 353 353 357 358 356 354 360
308 308 311 311 315 311 309 307 309 311 312 310 308 307 302 301 302 298 305 300 300 300 307 310 312 307 305 310 319 322 321 328 330 329 324 327 327 330 331 333 338 337 338 341 342 340 340 340 341 343 343 344 346 348 349 348 345 347 350 351 351 351 352 353 353 351 353 353 352 352 353 354 354 351 352 352 353 354 354 352 353 358 357 358 354 354
305 310 309 311 311 312 310 303 306 305 309 308 306 305 301 297 297 294 297 300 299 305 308 309 311 304 310 315 322 321 324 328 331 334 333 329 332 332 331 332 333 336 338 340 341 341 342 342 343 343 343 345 344 348 347 345 346 349 347 352 351 352 354 355 354 353 354 354 354 354 354 352 354 352 352 351 350 350 353 355 353 351 351 356 352 349
299 299 305 309 305 310 310 308 309 307 307 308 310 306 303 301 296 294 297 295 296 299 305 312 305 307 303 310 323 325 327 329 331 333 338 335 333 335 336 337 336 336 339 339 340 341 342 343 345 345 345 346 353 349 346 344 343 347 349 352 353 352 352 354 354 354 354 353 354 355 353 354 352 351 349 350 351 352 351 348 349 353 351 352 353 353
303 302 308 312 310 311 308 312 312 309 307 309 310 310 304 303 307 297 301 299 300 300 301 305 304 311 311 321 323 326 327 327 331 333 335 336 338 335 332 334 336 337 339 340 341 343 345 345 348 349 351 351 350 350 348 346 347 344 348 352 352 353 353 353 356 355 353 354 352 357 356 354 355 357 351 355 356 355 352 351 350 355 357 353 355 357
304 301 310 312 313 312 311 313 310 311 299 306 307 303 306 311 306 302 303 304 304 301 298 309 305 309 318 319 320 323 326 326 325 326 332 334 337 336 334 332 334 336 337 337 339 342 343 346 347 348 350 351 348 348 347 349 346 346 342 347 352 353 353 352 355 353 355 356 355 355 353 352 353 351 349 347 347 346 350 352 350 349 349 351 354 353
302 303 310 309 308 312 314 314 312 313 312 307 302 306 311 312 309 303 296 301 300 295 299 303 301 303 307 302 320 321 321 324 325 325 329 333 335 335 333 335 338 338 338 340 340 343 345 346 346 347 350 350 349 349 350 348 347 344 346 344 350 351 351 352 352 352 353 354 353 354 353 353 353 350 348 347 345 345 348 350 352 350 351 348 348 350
309 301 307 310 310 313 314 312 309 312 314 308 306 313 304 301 300 306 301 294 295 295 297 301 303 304 307 308 315 314 317 322 325 328 328 329 331 335 334 333 335 338 339 338 339 340 342 343 343 346 348 351 351 351 351 349 349 349 346 346 346 350 351 351 351 350 351 352 351 352 352 351 351 349 347 347 347 347 345 344 345 347 349 347 351 353
310 300 303 310 309 311 311 309 302 306 312 313 315 309 312 307 303 301 303 302 301 296 296 299 301 303 313 312 315 317 320 322 324 325 328 330 334 334 336 336 337 336 336 338 340 341 342 343 343 346 348 351 352 351 350 351 352 350 350 348 345 347 350 350 350 351 349 348 348 349 351 352 354 353 349 348 347 343 343 343 344 346 346 347 348 348
306 310 298 306 312 311 304 308 305 306 305 308 307 306 307 307 310 307 306 303 300 298 297 297 295 304 315 320 318 320 323 323 323 324 327 332 335 335 337 336 339 340 340 338 338 337 341 342 343 345 347 350 352 352 351 349 350 350 350 347 346 346 346 345 347 349 350 349 349 351 349 348 350 347 346 343 343 343 344 345 348 345 346 347 348 349
307 307 301 304 305 305 306 311 310 310 310 308 307 305 306 304 303 300 302 308 304 301 295 297 297 307 319 327 325 323 326 327 328 328 327 331 335 336 338 340 341 341 342 341 340 339 338 343 343 344 345 348 351 351 351 349 349 351 349 348 347 346 347 345 345 348 351 352 348 347 347 347 348 348 346 343 343 343 342 344 345 346 348 344 347 349
313 308 306 302 304 305 309 311 313 312 312 310 309 306 309 307 307 302 294 301 304 304 306 305 301 307 321 324 327 328 327 328 329 326 326 330 335 336 339 340 342 343 343 344 344 343 340 339 341 341 343 345 351 352 352 352 350 349 350 349 350 350 350 345 346 347 352 351 349 349 347 346 347 346 345 343 343 343 342 344 343 347 344 344 345 349
317 306 303 304 308 310 312 313 313 314 313 309 308 309 307 304 307 304 304 307 302 304 302 302 299 307 321 326 327 331 331 331 334 329 330 331 335 336 337 339 341 343 344 345 347 346 347 344 345 346 346 347 349 350 351 354 354 351 349 350 351 349 351 357 349 347 350 351 349 348 348 348 347 345 346 344 344 344 345 344 344 347 346 345 346 347
305 310 305 301 301 303 305 309 308 313 312 308 307 310 311 310 310 309 308 309 302 303 303 300 296 304 318 323 324 330 327 328 330 331 333 329 330 333 337 338 341 341 342 344 345 346 346 347 345 347 348 348 350 352 351 353 355 355 355 354 355 355 352 354 354 350 349 349 347 347 347 347 347 346 346 346 346 346 345 346 346 349 348 347 347 347
307 308 306 298 297 293 294 296 299 303 306 308 310 309 310 308 308 307 303 306 299 306 306 302 301 309 317 322 320 323 325 326 329 332 332 331 330 334 336 338 339 341 340 342 345 344 344 346 348 349 348 350 350 353 351 352 352 352 355 354 353 354 352 352 353 350 349 347 347 350 347 346 347 346 346 346 346 345 346 347 348 349 350 351 349 351
308 309 309 306 303 301 304 305 308 309 307 303 306 307 307 310 311 309 307 303 299 306 305 309 308 308 310 315 315 320 321 325 324 326 328 330 331 335 336 338 340 339 340 340 341 344 346 346 346 347 349 349 351 354 354 352 350 350 351 352 354 354 353 350 351 351 349 348 349 352 349 346 345 346 346 347 346 346 347 347 346 347 349 351 351 348
312 305 308 309 307 307 307 307 308 309 306 306 306 305 308 308 308 307 304 303 311 305 299 310 312 308 309 314 315 317 319 325 325 325 329 330 331 334 334 338 336 341 339 341 341 340 341 344 346 346 348 348 350 353 354 354 356 355 353 352 353 352 352 353 351 349 350 351 356 359 354 353 349 347 349 349 351 350 346 345 345 347 348 350 351 349
308 304 309 307 306 308 309 309 311 308 307 307 307 307 307 307 308 306 306 308 308 304 301 308 311 308 310 312 316 318 320 322 323 326 328 331 332 335 333 334 335 337 338 339 339 339 341 342 343 346 347 348 348 351 352 353 354 356 356 356 356 354 353 354 353 350 352 355 357 363 363 357 357 355 352 358 358 351 349 347 347 349 350 351 349 348
311 305 307 309 307 307 308 308 309 308 307 307 306 308 308 308 309 309 307 308 308 309 310 310 311 310 313 315 317 320 323 324 326 327 330 330 331 334 332 332 331 336 337 337 339 340 341 341 343 344 346 348 349 349 351 353 355 356 356 357 357 356 357 354 349 347 351 356 361 364 364 367 365 361 362 355 356 360 355 350 348 346 347 348 350 353
309 307 310 307 306 306 307 309 309 308 307 306 306 307 308 308 308 309 310 309 309 308 309 309 310 309 316 320 320 322 325 326 326 325 324 332 333 332 331 331 331 334 337 338 338 341 342 342 343 344 345 346 348 349 351 352 355 356 356 358 359 357 355 356 354 350 350 352 357 362 364 363 365 367 365 366 362 358 356 353 349 348 352 351 352 355
310 307 309 308 303 304 308 307 308 308 308 307 307 307 307 306 305 306 305 309 308 307 309 309 306 307 315 319 320 322 323 323 322 325 327 327 330 332 331 330 331 333 336 338 338 340 341 341 342 343 344 345 346 347 350 352 353 355 355 358 358 359 358 357 358 357 355 355 358 362 363 361 364 366 366 366 365 366 363 354 353 356 361 354 352 360
310 308 306 307 303 302 308 308 307 307 306 302 304 306 309 309 309 309 310 312 311 310 307 304 306 312 315 318 318 319 319 322 324 329 327 330 331 330 329 329 331 333 337 338 339 340 341 342 343 343 343 345 348 348 349 352 352 352 354 355 357 351 350 356 355 351 357 361 361 361 363 364 364 365 365 366 368 366 366 363 357 353 357 361 361 361
312 310 307 310 302 303 307 307 307 303 296 298 311 312 310 308 309 308 308 310 312 313 310 313 313 318 318 318 317 318 322 324 326 332 334 331 328 328 329 333 336 339 339 340 340 341 342 342 343 344 344 345 347 349 350 351 352 352 356 355 351 350 350 348 347 347 349 358 362 362 362 362 361 363 364 365 366 367 366 363 360 358 354 361 366 365
309 309 307 310 304 302 306 305 301 296 298 311 313 314 313 312 311 309 310 310 312 314 314 314 315 316 318 319 319 322 324 325 329 330 331 332 333 332 331 334 337 339 340 340 340 341 341 343 343 344 344 345 347 350 351 351 352 353 354 356 353 354 351 351 351 353 354 357 360 361 360 360 360 361 363 365 364 364 364 366 364 362 362 361 361 359
308 307 309 307 307 307 303 302 293 296 307 311 311 312 315 314 312 310 308 310 312 312 313 312 315 316 318 318 320 323 324 325 325 331 334 335 333 333 335 335 339 339 338 340 340 340 341 341 342 343 345 346 347 349 350 350 352 351 352 354 354 355 353 352 352 353 355 356 357 358 359 356 356 358 360 361 362 362 361 361 360 360 360 360 362 359
311 311 308 304 310 301 303 302 301 308 307 308 308 310 311 308 309 308 303 308 312 314 315 314 315 316 318 319 322 324 324 324 321 327 335 336 336 336 335 335 336 339 339 339 340 340 342 343 344 345 346 347 348 348 349 351 351 351 351 351 352 353 353 352 352 352 353 355 358 356 357 356 354 355 358 360 360 358 357 357 357 359 359 357 354 354
317 308 310 304 304 306 302 300 301 301 297 304 310 313 315 314 314 314 311 308 316 315 317 316 315 316 318 321 323 324 325 318 315 325 331 335 334 331 332 336 337 337 337 337 339 341 343 344 346 346 346 347 347 348 350 350 350 350 350 350 351 352 351 351 352 353 353 353 355 355 353 353 352 353 356 357 357 356 356 356 357 357 358 354 354 352
313 313 313 305 303 304 302 299 299 298 302 310 310 312 315 315 314 314 309 303 315 318 319 320 316 319 321 321 326 325 320 312 313 321 332 334 335 332 331 335 335 337 337 338 340 339 341 344 345 346 346 346 347 349 349 349 349 348 347 348 348 350 350 351 353 353 352 352 353 352 353 352 351 352 355 355 356 355 353 353 354 356 355 353 351 352
308 308 308 304 303 304 303 300 299 305 302 309 312 313 314 316 316 311 298 301 317 321 321 321 319 318 322 322 322 320 316 311 315 326 330 334 332 333 331 334 336 336 337 338 339 341 341 344 344 344 344 344 345 348 346 345 346 346 346 347 348 348 349 350 350 352 353 353 352 353 352 352 352 351 352 354 355 355 355 356 357 353 352 351 351 351
305 306 306 302 303 303 303 301 304 306 314 313 313 315 316 316 313 302 297 310 321 323 323 323 322 321 322 322 321 316 327 328 332 334 333 332 330 332 334 337 337 337 337 338 339 342 341 342 344 344 345 344 344 345 344 342 342 343 346 346 346 347 348 350 351 350 351 353 352 352 352 352 351 350 350 352 353 353 353 356 354 353 350 349 350 350
305 307 305 306 302 302 303 300 301 306 316 317 317 315 318 312 301 300 315 325 325 323 325 323 323 323 323 322 322 324 329 334 334 336 333 332 332 335 335 336 337 337 338 341 342 342 341 340 342 342 341 340 342 345 346 345 342 344 345 345 344 346 348 349 350 352 352 352 351 350 351 351 351 349 350 351 351 348 348 350 351 351 350 350 351 352
306 303 302 302 305 304 304 301 299 293 314 316 317 315 317 308 315 321 324 326 321 324 323 324 324 325 325 324 324 326 332 333 330 329 329 333 333 335 337 337 337 336 337 339 340 340 340 339 340 338 338 340 340 343 343 343 344 344 345 343 344 347 347 347 348 348 349 350 350 349 349 347 348 348 347 346 349 345 345 347 348 347 348 350 351 353
315 304 304 305 309 302 301 299 298 311 315 318 315 309 316 321 323 326 322 320 322 321 321 322 329 329 327 326 325 325 328 332 333 332 332 334 335 337 338 338 338 338 338 339 340 341 341 340 339 338 336 336 338 340 341 340 342 343 343 343 346 347 347 347 346 345 343 343 345 349 345 343 344 346 347 347 346 345 344 345 346 346 347 350 351 349
318 309 317 307 311 307 306 309 315 320 319 318 318 317 323 328 329 328 323 320 321 321 327 325 328 326 328 328 327 326 325 331 333 334 334 335 336 336 337 336 337 337 338 338 339 341 340 338 339 338 338 339 339 339 340 341 342 343 342 344 346 345 344 342 341 338 335 334 334 335 339 345 345 344 344 344 345 344 344 343 344 343 346 347 346 343
320 320 324 317 310 316 316 319 320 319 318 317 319 321 322 325 328 324 321 322 326 326 326 324 325 326 328 329 326 326 326 329 333 335 336 335 335 336 337 337 337 338 338 338 338 340 340 338 336 336 337 338 338 340 340 341 342 341 342 344 344 344 343 340 338 337 334 332 331 331 331 332 334 334 339 344 345 345 344 343 344 343 346 346 345 344
316 316 313 310 317 308 303 321 317 318 321 319 317 326 325 325 325 326 324 324 327 327 327 329 327 326 325 328 328 327 327 332 333 336 336 336 335 336 336 336 336 337 337 336 338 339 339 338 336 335 336 335 337 336 339 342 342 342 344 344 343 342 342 339 337 335 333 331 330 330 327 325 323 322 322 329 341 343 343 344 346 346 345 344 342 341
310 319 312 312 313 310 310 318 317 322 324 325 324 323 322 326 323 324 326 327 330 330 328 330 327 327 327 326 329 330 331 333 333 334 335 335 336 336 335 335 336 336 336 338 339 339 339 338 336 334 335 335 334 338 339 340 340 342 344 342 342 341 340 338 336 334 332 331 330 329 328 325 323 318 315 313 315 318 323 329 331 329 330 334 340 337
322 316 308 312 310 312 322 319 320 320 321 322 323 327 332 326 325 327 328 328 326 328 328 329 328 328 329 335 335 334 332 334 335 335 334 335 335 334 334 335 335 335 335 337 338 338 337 337 336 336 336 334 334 334 333 335 340 342 342 342 343 342 339 337 335 334 332 331 330 328 327 325 322 320 317 313 309 306 304 305 316 322 317 315 315 333
314 309 315 313 309 308 310 316 318 311 312 317 321 324 326 328 329 328 328 323 325 327 331 327 330 330 330 333 333 332 334 334 336 335 333 335 334 334 334 334 334 334 335 335 337 337 336 336 336 335 334 334 334 334 335 335 336 340 343 343 344 343 339 337 335 334 332 332 331 330 329 327 326 324 322 318 316 313 311 306 299 304 314 313 311 308
313 316 314 312 311 311 315 321 324 323 321 323 323 324 327 328 327 326 328 328 328 328 330 329 326 329 331 333 333 333 335 335 335 336 335 334 334 335 334 333 333 333 333 335 335 335 334 334 336 335 334 334 333 332 334 335 335 336 340 341 343 343 342 338 335 333 332 332 331 331 330 329 327 326 324 323 321 320 317 314 309 298 298 304 304 302
Wind_Speed
6 9 8 8 8 9 11 11 12 13 13 12 9 9 5 6 7 10 8 8 9 4 8 11 7 2 15 12 9 4 4 4 7 7 6 8 7 5 10 7 6 10 9 9 10 8 6 3 8 9 8 8 8 10 10 9 10 10 10 10 8 9 9 8 9 8 8 8 8 8 8 7 6 5 5 6 6 6 4 4 3 1 1 2 4 7
8 9 9 11 12 12 12 7 8 11 11 11 10 10 6 6 8 9 8 9 6 5 6 9 11 5 9 12 7 3 2 3 5 7 9 8 6 10 9 8 6 6 8 10 8 8 8 5 4 8 7 8 10 8 11 10 10 9 13 13 11 9 9 8 8 8 8 8 7 8 8 8 7 6 6 6 6 6 6 10 5 3 2 4 4 7
7 9 11 16 12 4 8 8 10 11 11 10 8 7 6 8 2 8 9 9 6 3 5 8 7 5 9 9 6 4 3 4 5 5 7 7 3 15 10 7 7 7 8 10 10 8 9 7 7 8 7 6 10 10 10 11 11 10 10 10 10 9 10 9 9 8 8 8 7 7 7 8 8 7 5 6 6 10 12 11 6 4 5 5 5 8
10 12 9 13 5 4 9 10 11 12 11 9 9 8 8 7 9 6 11 7 9 6 4 4 5 3 11 8 6 6 5 3 2 3 5 7 4 9 16 12 10 9 9 10 11 11 8 6 2 2 5 9 8 9 11 11 12 9 8 8 8 8 9 8 8 7 7 7 6 5 5 5 3 4 1 3 3 5 7 16 12 6 8 8 7 9
10 8 5 4 6 5 10 11 10 9 9 9 10 10 9 9 8 8 7 10 9 10 6 4 4 5 5 4 5 2 5 3 3 1 4 2 4 4 10 9 7 10 11 11 10 9 7 4 1 2 1 1 6 8 10 11 11 8 11 10 8 8 7 8 8 8 7 7 6 5 6 4 3 2 3 5 3 4 3 7 13 13 12 11 8 12
11 10 1 7 12 6 7 10 9 8 9 9 12 11 8 8 11 13 11 13 5 6 9 3 5 2 4 3 6 2 3 5 4 3 2 3 2 4 6 8 3 2 9 9 10 8 6 5 2 3 3 2 4 10 8 11 11 11 10 11 9 8 7 9 10 9 8 6 7 7 6 5 4 6 5 5 7 7 6 7 9 13 13 12 10 12
5 5 4 9 7 12 9 9 9 5 8 9 8 9 10 7 9 8 8 7 6 6 6 4 5 5 1 6 4 3 3 4 6 5 5 3 4 5 7 4 6 9 5 9 8 5 7 7 6 4 4 3 6 12 10 10 10 11 10 12 11 9 8 9 8 11 8 8 8 9 10 8 8 7 5 4 6 8 8 7 8 9 10 9 8 11
6 7 1 7 8 10 9 9 5 5 8 4 5 8 9 8 8 8 9 7 7 6 8 8 5 8 4 2 3 2 4 4 5 5 5 3 7 2 7 2 8 6 9 7 7 6 5 3 3 3 1 2 11 10 9 10 10 12 12 10 10 8 8 9 10 11 10 9 9 9 10 9 9 9 7 7 6 7 7 8 9 9 8 8 7 8
8 8 9 8 10 8 5 13 12 4 7 5 3 5 9 9 9 10 8 7 2 4 2 1 9 8 1 2 2 2 3 2 6 6 5 5 8 4 7 3 5 7 8 7 6 6 6 4 4 3 4 6 10 13 9 9 9 10 12 11 8 6 9 11 12 11 11 10 9 10 8 7 7 8 8 8 7 7 8 9 8 7 8 7 7 8
5 12 11 7 8 7 4 8 6 5 8 9 7 7 8 8 9 9 8 6 4 5 6 3 4 8 1 2 1 4 1 2 5 7 6 6 8 7 6 5 3 6 8 5 4 4 3 3 1 3 2 1 12 11 9 9 11 11 11 13 14 10 9 11 12 10 10 10 9 8 7 9 8 6 7 7 8 8 6 7 6 7 7 8 7 9
2 4 9 9 7 11 10 8 8 2 10 6 9 10 5 8 8 8 5 4 4 6 7 11 8 6 5 4 2 2 1 2 0 7 7 8 5 4 3 3 5 5 6 4 4 4 3 4 4 2 1 5 10 6 5 7 11 12 12 12 13 12 10 12 12 11 11 10 10 8 9 10 9 9 8 7 7 6 6 6 7 5 5 6 8 7
6 5 5 6 6 8 5 10 3 8 9 8 9 6 5 5 4 7 5 5 6 5 4 12 7 3 8 4 1 8 13 14 13 6 10 10 10 8 5 4 5 7 6 6 7 7 7 5 3 6 7 10 14 10 11 3 9 11 11 12 12 11 10 12 12 12 13 12 11 9 10 9 8 9 9 8 7 7 7 7 7 6 6 5 8 5
9 10 7 9 7 8 7 9 6 5 6 8 5 6 5 5 5 5 4 2 5 5 4 4 5 7 1 5 10 11 8 7 12 9 6 11 11 9 8 9 5 5 6 7 7 7 7 6 6 7 9 13 12 2 7 4 6 11 10 12 13 11 12 11 12 12 11 10 10 10 9 9 8 8 7 7 7 6 7 7 6 7 6 5 7 7
7 4 8 5 5 7 7 9 5 8 1 7 9 2 3 5 4 6 5 5 5 6 5 7 3 5 7 9 13 9 8 7 6 5 4 9 10 11 11 9 8 7 8 7 8 10 10 10 10 11 12 10 8 3 3 7 10 4 9 11 11 11 11 10 11 11 11 10 10 9 10 9 7 8 7 8 9 9 6 6 7 8 7 6 7 9
4 6 8 5 1 9 6 5 7 9 6 5 3 3 6 7 7 7 3 5 5 5 8 4 6 2 4 6 9 8 10 9 7 6 3 5 7 9 10 10 9 8 8 8 7 8 9 10 9 9 9 8 5 7 7 6 4 10 8 9 10 11 12 11 11 10 11 10 10 9 9 8 8 8 8 7 7 7 7 8 8 6 8 8 6 6
7 4 3 7 3 5 7 7 5 7 7 7 7 9 6 4 8 6 1 2 6 4 4 7 1 10 10 12 10 7 5 7 8 6 5 4 5 4 5 8 9 8 6 4 7 6 6 9 9 8 7 6 6 6 6 7 4 3 6 9 9 11 12 12 11 10 11 9 10 9 9 9 8 6 8 6 7 6 7 7 7 6 6 6 6 5
2 3 5 10 3 8 10 11 6 7 8 4 7 1 5 5 7 9 6 4 9 4 5 6 6 10 15 11 9 8 4 9 7 2 5 5 5 6 5 6 7 8 10 9 7 7 8 7 8 9 7 7 6 6 7 6 5 8 5 10 10 11 11 12 11 12 11 9 10 10 10 10 9 10 10 10 11 11 9 6 6 8 8 7 6 7
7 1 7 11 9 9 2 9 11 8 4 6 7 8 10 8 8 5 7 3 3 6 3 1 6 9 8 5 3 7 5 5 4 4 4 5 6 7 6 6 5 5 8 7 7 8 9 9 9 8 7 8 8 7 9 8 6 9 9 5 10 11 12 13 13 13 12 11 11 11 11 10 10 11 11 10 11 11 9 7 5 7 7 8 9 8
5 8 4 8 11 3 4 2 7 9 6 10 10 11 6 3 5 3 4 6 4 4 5 3 6 10 9 9 4 5 4 7 6 2 3 4 4 3 4 7 7 7 7 6 5 5 7 7 7 7 7 8 8 7 8 9 5 4 6 5 7 12 13 13 12 12 11 12 10 10 11 12 11 10 11 9 9 8 10 10 9 9 8 9 8 7
9 7 3 1 6 9 7 3 6 5 11 7 7 10 8 10 2 5 2 5 4 5 5 4 5 5 8 7 8 6 4 5 8 2 3 3 3 3 2 2 6 6 6 6 7 7 6 7 7 7 6 8 9 9 7 8 7 8 7 10 6 12 12 12 13 12 12 13 11 11 11 10 8 7 8 8 8 10 9 10 11 10 11 9 7 8
6 5 8 4 8 7 4 2 2 4 5 2 3 6 5 7 6 4 6 7 5 7 6 6 4 7 8 6 8 7 4 4 6 6 1 1 3 4 3 2 3 1 4 4 5 7 8 6 7 6 6 7 8 8 8 7 7 8 5 6 9 11 14 14 13 12 10 11 10 11 12 13 11 12 10 11 9 10 9 8 9 9 9 8 7 7
4 4 5 2 7 6 4 5 6 4 7 9 7 5 5 6 5 6 5 2 7 5 4 5 3 8 7 4 5 4 4 4 6 3 4 2 3 4 3 3 2 3 3 6 6 5 8 9 8 8 8 7 8 8 9 8 7 7 8 7 6 6 10 13 14 11 10 10 10 11 12 13 12 11 9 11 10 10 10 10 8 8 7 10 7 7
4 3 6 6 3 5 2 8 3 5 7 9 7 9 7 6 5 5 4 5 5 7 7 3 4 5 4 6 7 6 3 3 5 1 2 3 2 2 3 4 3 3 2 2 3 1 4 7 7 7 7 8 8 8 8 8 8 8 8 7 5 5 7 12 13 11 9 10 10 11 12 12 12 12 12 12 10 11 11 9 10 7 9 8 9 7
4 6 6 5 5 7 7 2 3 5 5 7 9 11 9 6 9 7 5 6 7 7 7 4 3 5 4 4 9 6 5 5 4 3 2 2 4 2 3 3 5 4 3 2 3 2 2 3 5 6 7 7 5 6 8 7 7 7 7 9 8 10 11 8 8 10 11 10 12 13 13 12 11 13 13 13 11 12 11 10 9 7 7 8 7 9
8 3 4 4 4 6 7 3 5 2 4 6 4 2 4 6 8 8 8 6 7 6 9 5 5 4 7 8 8 10 9 8 6 4 2 2 1 1 2 1 2 2 3 5 3 1 1 3 3 4 6 6 5 6 7 7 7 6 5 3 4 3 4 2 1 5 9 13 13 13 12 13 13 13 13 13 11 12 12 11 10 7 8 8 7 8
5 7 3 6 4 5 5 4 2 1 7 4 2 6 5 3 6 5 5 3 4 4 8 6 3 6 9 8 11 11 9 4 6 7 7 4 4 4 1 3 2 2 3 2 5 4 3 2 3 4 4 4 6 5 6 6 6 7 5 4 4 2 4 3 1 3 12 12 13 10 13 13 13 13 14 13 13 13 12 11 10 9 9 9 8 6
5 3 3 4 6 7 5 4 6 7 6 8 5 7 11 3 6 5 5 7 6 7 4 7 6 6 1 7 3 10 10 11 3 6 7 8 3 8 5 2 2 3 1 2 2 3 4 3 4 5 4 4 5 6 5 6 7 6 6 6 5 5 5 3 2 2 4 16 13 9 11 13 12 11 12 12 12 11 11 11 12 10 9 8 8 9
3 7 5 8 8 10 10 8 8 11 8 8 7 8 12 8 6 7 6 6 6 4 6 7 6 4 4 3 2 3 8 11 10 5 6 0 3 4 4 4 1 4 3 2 3 2 2 2 2 2 4 5 5 5 5 4 5 7 7 7 6 5 4 3 4 5 9 13 11 6 8 8 10 12 9 9 8 9 10 11 11 10 10 9 9 10
7 8 7 6 11 10 10 11 5 3 9 11 9 5 5 7 7 5 6 8 7 6 7 7 6 5 4 4 4 6 6 5 7 13 4 4 3 3 3 5 5 2 2 1 2 1 1 3 1 3 4 5 5 6 6 6 6 5 6 6 6 6 6 6 6 7 10 12 9 7 5 6 6 6 8 6 6 8 9 9 9 7 7 8 9 10
6 9 10 7 7 8 9 8 10 9 10 12 11 10 7 6 4 8 2 8 10 8 6 7 5 5 5 6 5 6 3 3 3 1 10 11 7 4 3 4 4 5 2 2 2 2 3 2 3 2 3 4 4 5 5 6 5 5 6 6 7 6 5 9 9 10 9 9 7 5 4 4 5 5 3 5 6 5 7 8 8 10 10 9 10 8
5 1 0 9 8 6 6 10 10 11 11 11 10 10 10 9 7 9 7 7 6 8 8 7 6 6 3 6 5 2 2 2 3 4 1 8 4 4 5 5 3 2 4 3 2 2 1 1 1 3 3 4 5 5 4 5 5 6 6 6 6 7 8 9 12 12 9 8 10 6 4 5 4 3 4 3 4 5 6 7 8 7 6 7 7 7
6 5 2 6 8 8 7 9 10 8 10 11 9 8 9 9 10 8 9 9 7 6 7 7 7 6 6 5 4 4 4 2 3 2 1 3 3 2 1 4 3 1 2 2 2 2 3 3 2 3 2 2 3 3 4 4 4 4 5 6 7 6 7 7 7 9 12 12 10 6 6 5 5 4 3 4 4 4 5 7 7 6 4 5 7 6
5 6 7 5 4 7 7 5 9 8 9 10 10 10 11 13 7 6 10 9 11 3 6 7 4 6 5 3 3 2 3 3 5 7 4 1 2 3 5 6 4 3 1 1 1 2 2 2 3 3 2 2 2 2 4 4 4 4 4 4 2 7 3 6 3 5 7 6 6 6 6 5 5 6 5 4 4 4 4 4 6 7 5 4 4 4
8 7 7 3 6 5 6 6 4 5 7 6 5 5 6 7 8 11 10 6 7 7 5 5 6 4 6 4 3 5 3 4 3 4 2 2 3 4 3 3 2 2 2 2 2 3 3 3 3 3 2 1 2 3 3 3 4 4 4 2 1 4 5 7 8 11 12 9 7 6 7 6 6 6 5 4 3 3 3 5 5 5 6 4 3 3
9 8 8 6 6 8 6 8 8 10 5 3 4 7 9 9 9 11 7 7 8 1 3 4 4 4 3 2 3 3 4 3 4 2 1 2 1 2 2 2 3 2 3 3 2 2 2 3 3 4 4 3 4 4 3 4 5 5 4 5 7 7 6 8 10 10 11 10 8 7 8 8 7 6 6 6 5 4 1 1 3 4 4 4 4 5
9 9 7 8 6 6 7 4 7 5 9 6 2 6 9 5 5 10 10 8 8 10 7 7 5 4 2 1 3 4 3 3 3 4 4 2 1 2 2 1 0 2 4 3 3 1 2 3 3 4 4 3 4 4 4 5 4 5 5 4 4 5 9 11 11 10 10 10 10 10 10 9 10 10 9 8 7 6 5 3 2 3 2 3 4 4
12 8 7 8 5 9 6 7 9 5 8 9 10 7 6 4 8 7 7 4 5 3 2 1 1 2 3 3 1 1 2 3 5 4 3 4 2 2 2 4 2 1 1 5 1 2 2 2 4 3 3 4 4 5 5 5 5 5 6 6 5 5 6 8 9 10 10 10 9 10 8 11 12 10 10 9 9 7 7 6 4 4 3 4 3 4
7 7 3 7 6 6 8 8 7 5 7 2 2 4 1 7 12 11 3 4 5 2 5 4 2 3 5 5 1 1 4 5 6 3 3 3 1 1 6 5 2 4 4 3 4 2 2 3 3 4 4 4 5 5 4 4 5 5 5 6 6 7 7 9 10 9 9 7 7 8 8 7 8 8 10 9 9 10 8 7 5 5 6 7 7 6
13 9 5 7 7 8 9 9 8 8 2 3 4 9 8 4 9 11 1 6 4 6 10 8 2 4 5 6 7 3 3 6 5 1 3 2 3 2 4 4 5 5 5 4 5 5 5 4 4 4 5 5 4 2 3 6 6 5 5 6 7 7 8 8 8 8 7 7 7 7 8 9 9 10 9 10 9 9 10 9 8 7 6 3 4 4
15 10 10 10 11 9 8 8 8 4 3 5 2 3 6 10 7 5 7 4 8 8 5 4 4 4 4 4 4 7 7 7 4 3 3 5 3 2 3 2 2 3 3 4 4 5 5 4 4 3 2 3 3 5 7 8 6 4 5 6 6 7 7 7 6 6 7 7 7 7 8 8 9 10 10 9 6 5 5 6 7 8 7 7 7 6
13 10 9 10 10 10 10 9 7 3 5 7 6 4 3 2 5 4 7 4 2 5 3 3 3 2 2 4 3 6 4 1 3 2 3 3 3 2 1 0 1 1 2 3 4 5 5 4 2 2 2 3 3 3 0 3 9 5 4 5 5 6 4 3 3 3 5 6 7 7 7 7 8 9 8 7 6 4 4 4 7 8 8 7 6 6
6 6 8 11 12 10 8 10 9 2 3 4 3 2 5 6 8 5 3 4 2 2 2 2 3 3 2 4 4 4 4 5 5 4 4 3 2 1 2 1 1 2 3 3 4 5 5 6 4 6 7 6 7 4 4 2 3 5 2 4 4 5 3 4 4 4 5 4 5 6 6 5 4 6 6 6 5 5 7 6 5 5 6 5 6 8
8 9 10 11 8 9 7 9 7 5 3 6 6 7 4 9 4 4 1 3 6 5 5 6 5 4 2 4 7 4 10 4 4 3 2 2 1 1 1 1 2 3 3 4 4 5 6 6 7 4 5 3 5 5 4 5 0 1 4 3 5 4 3 3 4 4 4 5 5 5 4 3 6 7 6 5 5 9 8 6 5 6 6 6 6 6
5 10 7 9 7 8 7 8 2 2 4 4 3 3 5 8 5 2 2 3 1 6 5 5 4 3 4 4 4 4 1 4 2 1 2 1 1 2 2 1 0 2 3 4 5 7 7 6 4 3 2 2 2 4 5 6 2 3 4 5 4 5 5 6 6 6 7 7 5 4 3 1 2 1 6 8 8 10 10 9 7 5 6 6 6 5
1 1 4 2 4 5 2 3 6 3 6 3 3 1 11 11 8 6 6 3 4 2 5 2 6 6 5 2 2 2 4 4 4 3 2 4 3 2 1 1 3 3 4 4 6 7 6 7 6 4 3 3 6 4 4 4 2 4 5 4 5 6 6 6 6 7 7 7 7 8 6 3 4 4 6 6 9 8 9 10 7 6 6 6 4 5
4 3 4 3 4 5 3 11 8 7 9 10 6 4 9 5 4 1 6 2 4 5 2 4 4 4 1 4 3 2 4 3 5 4 3 3 3 5 1 1 3 4 4 5 6 6 4 5 4 3 5 5 5 4 4 5 3 3 3 4 6 5 5 5 5 6 6 6 7 7 7 6 6 7 2 9 8 8 8 7 7 7 7 6 4 5
7 8 7 5 3 0 3 6 5 1 4 4 3 6 12 3 5 4 2 1 4 1 3 2 3 1 2 2 2 3 2 3 5 5 4 3 2 2 2 3 3 4 4 5 6 5 5 4 4 5 5 6 5 3 4 2 3 5 4 5 4 5 5 5 5 6 6 7 7 8 8 8 6 6 7 6 7 5 2 2 5 6 5 5 6 6
7 4 10 11 9 6 5 5 4 5 3 4 7 7 1 5 3 0 3 3 4 3 2 3 2 3 1 3 2 2 1 2 3 4 4 4 3 3 3 3 3 2 4 5 5 5 6 6 6 3 3 5 4 6 8 7 6 6 6 5 5 5 5 5 6 6 7 7 6 6 6 7 9 9 6 7 10 10 9 7 7 8 6 5 5 8
5 2 7 2 7 8 5 4 4 4 3 1 5 8 3 3 3 6 3 2 3 2 1 1 1 6 3 7 3 3 2 3 3 3 3 4 4 3 4 4 3 2 4 4 5 6 6 6 5 5 5 5 3 5 7 10 9 7 7 4 4 5 6 6 7 7 7 7 7 7 6 6 6 7 7 8 10 9 8 6 6 8 8 6 4 2
7 8 5 8 7 8 2 1 6 6 6 6 3 4 3 12 3 1 1 3 3 2 3 3 1 2 2 4 3 3 4 4 4 4 5 4 4 4 6 4 3 3 3 3 3 5 6 6 4 6 5 4 4 3 5 8 7 7 6 5 4 3 6 6 6 7 6 7 6 6 6 5 6 6 7 8 6 7 9 15 16 12 8 5 9 16
6 6 6 4 3 3 5 9 4 3 4 1 3 5 3 8 9 6 4 3 4 2 4 4 4 1 1 3 2 3 4 4 5 4 5 5 5 6 6 4 2 3 2 3 5 5 5 3 3 5 4 5 5 3 1 6 5 6 7 7 5 3 4 6 6 6 7 7 7 7 6 7 7 6 7 6 7 7 7 8 13 18 17 14 13 16
Wind_Direction
196 235 221 226 235 243 241 238 258 277 291 294 291 240 241 258 261 157 153 173 177 262 261 279 297 12 104 140 177 184 195 251 285 284 274 269 243 138 144 197 180 139 134 138 126 128 144 139 146 164 157 163 168 173 144 161 161 161 136 147 154 134 141 149 150 153 153 154 153 149 155 155 164 170 185 180 171 182 160 153 216 86 147 164 140 128
206 235 248 241 246 252 250 245 251 261 258 276 290 308 277 221 270 150 157 154 167 212 284 285 272 119 144 136 132 123 58 339 337 322 309 304 283 86 167 178 144 138 128 127 124 122 136 164 151 162 164 180 165 176 155 159 157 166 140 154 157 150 152 159 154 149 161 162 162 156 159 151 157 174 190 178 179 157 167 158 159 161 209 225 171 134
214 235 241 232 233 296 346 319 300 300 301 286 274 258 244 265 238 122 159 169 141 218 268 281 306 316 93 97 101 80 57 21 3 346 328 320 334 124 152 197 144 154 148 137 139 140 147 162 185 172 160 190 171 173 174 165 162 165 152 151 148 159 155 160 151 152 157 164 161 157 146 149 154 186 189 169 193 161 166 139 162 177 209 210 194 138
246 225 256 34 22 276 272 283 284 276 259 265 260 241 257 276 268 226 145 165 181 201 268 280 292 4 104 91 90 67 58 27 47 32 357 341 225 164 147 171 158 168 151 146 151 151 148 148 89 357 176 181 180 184 169 166 160 160 158 150 152 162 153 151 156 152 155 156 145 107 110 68 103 170 129 10 132 125 132 148 160 182 209 206 192 141
275 308 58 305 28 292 287 275 235 238 256 235 236 264 272 240 233 263 155 210 188 213 227 251 257 274 139 150 121 77 135 53 54 340 348 76 56 131 132 140 175 169 164 149 148 138 125 117 100 228 304 110 226 192 175 172 161 166 163 153 157 147 153 146 152 147 144 134 119 97 93 63 79 108 135 157 156 133 145 156 163 170 197 196 194 140
273 72 41 248 243 285 279 264 238 256 271 257 225 234 266 276 268 247 185 175 203 229 183 226 293 271 112 103 51 66 360 26 36 359 40 56 157 156 133 123 94 259 159 146 137 136 137 139 164 235 267 269 243 227 165 166 171 168 163 152 160 146 143 144 149 145 147 145 133 142 149 151 168 170 172 164 160 172 175 185 186 164 182 187 187 136
356 29 12 340 296 250 235 258 237 212 264 253 359 202 212 257 272 300 311 290 270 301 124 203 307 300 220 60 74 351 36 21 54 35 55 84 128 119 115 140 139 179 135 97 97 127 161 164 179 217 256 220 258 233 181 161 180 152 155 160 165 152 163 143 145 153 151 149 151 163 168 172 180 166 172 161 170 177 188 187 197 164 181 183 164 140
211 217 67 250 260 258 247 226 217 220 253 306 34 354 314 344 307 293 272 279 297 63 56 347 324 308 301 48 13 23 353 26 59 46 68 99 128 59 90 101 177 153 133 115 98 99 87 103 163 172 95 342 264 219 199 158 167 157 156 161 150 158 152 152 155 169 161 161 166 174 178 179 173 165 173 182 188 197 187 189 189 172 177 164 165 144
250 218 185 246 238 261 243 20 102 210 289 1 330 6 274 287 311 305 311 292 317 311 340 266 258 260 10 110 60 344 327 29 74 63 62 118 139 176 86 315 100 95 97 113 130 135 148 175 203 119 180 215 245 246 205 156 168 156 155 148 135 165 158 152 165 168 165 167 174 173 171 166 173 169 174 183 189 194 193 183 172 170 169 157 155 148
115 308 7 306 290 291 343 254 216 115 253 34 10 278 271 289 257 276 288 300 282 276 276 241 231 281 31 203 185 88 331 336 93 88 92 126 143 146 132 180 144 103 91 89 111 110 102 133 139 187 259 243 274 238 171 156 164 155 159 158 152 177 163 160 168 168 168 169 172 170 167 171 176 190 176 182 187 175 175 169 174 175 158 160 156 160
343 99 330 283 260 349 309 3 301 190 261 328 284 302 260 229 254 247 246 259 322 270 252 263 224 249 269 133 158 123 45 19 297 123 130 148 150 162 163 194 162 133 106 109 144 140 151 154 170 170 176 290 273 277 297 180 168 157 158 165 162 165 161 165 171 172 170 168 179 177 174 183 186 189 175 180 169 151 156 163 177 169 161 163 154 173
249 245 216 213 259 267 278 299 271 336 300 343 304 285 279 268 288 278 256 283 270 277 17 332 277 280 294 115 112 76 62 55 31 0 161 172 174 175 204 251 194 150 134 166 175 153 166 135 203 176 155 229 232 221 191 253 179 154 158 165 161 163 163 166 170 175 174 173 181 184 182 186 199 178 178 173 170 161 170 175 172 158 179 182 148 177
226 219 172 192 181 280 216 264 156 199 216 228 252 242 285 314 308 276 70 317 253 286 61 250 331 294 330 46 96 76 83 114 129 193 213 178 174 174 181 196 219 148 152 173 164 152 165 171 195 190 194 209 222 252 120 212 223 152 159 161 162 165 165 169 171 174 178 174 181 181 184 193 190 177 172 165 172 171 175 176 169 163 182 181 160 165
225 140 129 218 161 149 278 267 160 240 274 277 246 312 270 273 274 287 294 294 265 204 259 225 145 283 93 80 97 132 148 163 155 159 130 158 173 175 179 183 196 174 167 177 174 167 174 189 189 182 201 190 185 104 86 92 321 195 160 161 169 164 166 173 173 177 179 180 181 175 188 188 177 178 170 165 180 182 179 182 171 175 181 178 181 174
240 189 239 313 181 132 245 231 299 337 308 243 332 235 276 272 260 278 298 296 323 300 233 182 254 149 109 114 146 139 164 159 139 126 133 158 168 172 171 172 176 165 167 182 179 176 180 178 184 173 178 163 120 112 102 90 117 304 167 169 168 168 172 177 176 178 181 181 182 178 187 187 175 183 173 179 183 181 181 182 184 177 179 180 190 171
298 256 67 120 105 290 283 211 56 295 251 282 261 204 227 352 18 286 34 293 267 297 263 170 2 63 75 108 110 106 142 115 113 119 121 152 168 150 166 149 164 159 146 218 185 170 175 176 186 174 150 134 127 116 96 118 151 59 305 176 179 174 177 179 177 179 183 183 181 180 186 188 179 186 179 175 173 183 187 192 185 185 173 183 175 171
338 328 103 145 286 258 270 357 242 199 257 29 308 246 337 354 267 296 289 338 329 253 277 80 143 125 117 104 114 117 112 87 69 64 107 118 138 151 150 170 164 164 163 176 199 166 179 193 196 189 157 135 141 140 128 121 138 107 3 291 193 184 183 182 182 181 182 181 182 183 187 187 182 188 188 182 185 188 188 198 189 180 189 182 166 178
296 161 169 302 256 173 232 268 311 310 332 286 241 28 338 313 331 260 310 317 241 307 290 313 301 158 162 92 105 106 104 119 111 104 101 112 141 161 158 165 150 153 162 176 179 174 183 192 193 187 168 155 153 149 133 147 159 149 155 257 263 192 193 183 187 185 183 184 184 183 188 192 190 190 194 188 189 194 188 182 205 175 194 186 180 187
327 280 172 165 253 196 137 261 244 258 252 292 318 343 299 48 273 71 307 276 339 285 315 123 293 67 84 106 126 113 115 101 102 89 81 96 110 107 157 158 154 168 157 168 174 189 196 195 199 184 179 160 148 157 142 146 158 171 139 128 280 237 199 191 190 186 187 186 188 187 190 191 195 194 200 196 189 203 183 191 193 196 185 200 176 185
153 270 167 252 282 110 247 180 270 237 160 245 304 245 259 227 249 306 25 324 255 249 278 106 256 58 78 133 147 129 106 114 110 74 34 62 46 94 101 137 169 164 163 174 178 179 179 193 198 183 183 161 158 157 158 149 156 176 177 151 213 258 209 200 199 184 192 190 192 188 188 194 194 202 205 202 193 199 195 197 190 207 179 203 186 181
275 66 301 103 291 323 252 215 345 325 304 232 250 317 320 320 24 286 273 266 291 320 285 300 290 80 84 124 135 154 134 87 77 98 75 35 83 69 43 112 102 119 147 167 192 186 170 182 179 181 189 183 175 163 158 159 172 169 189 193 180 247 225 199 202 192 196 193 200 183 188 190 190 201 203 206 195 198 204 202 197 203 189 185 204 172
285 211 260 222 228 221 308 234 302 284 290 304 321 306 345 284 290 288 287 276 284 277 315 303 316 94 84 137 125 113 77 96 85 131 137 164 172 123 148 130 126 117 180 160 214 206 186 171 169 174 191 194 178 169 162 164 166 168 183 213 181 215 250 207 203 194 199 195 201 192 190 191 187 197 199 205 199 202 205 198 211 189 215 181 200 180
318 340 268 269 278 299 156 87 207 320 306 289 286 285 293 321 251 243 290 307 319 294 300 281 279 112 158 120 114 121 132 106 100 120 21 60 120 150 118 98 81 71 47 67 50 204 183 173 181 163 169 163 176 169 161 158 172 181 189 194 211 184 251 234 212 201 188 202 199 199 194 195 189 195 197 202 201 207 208 201 203 203 208 207 189 196
333 266 274 249 324 306 305 72 88 215 264 264 242 231 230 270 359 343 295 322 322 314 282 307 281 94 115 177 143 156 167 176 138 129 90 39 317 137 118 119 105 91 95 58 97 8 93 157 180 136 158 158 169 175 171 167 174 182 191 201 203 205 217 258 247 211 188 201 203 204 198 201 197 196 199 200 204 203 215 209 203 200 217 231 199 181
272 133 297 307 252 234 244 254 269 320 271 268 318 19 336 322 290 291 328 332 292 288 300 322 315 124 134 192 153 153 189 180 170 145 114 112 159 34 51 37 102 118 86 107 84 46 64 125 193 165 156 158 167 170 170 169 179 165 171 196 211 198 276 281 335 347 260 202 211 204 205 202 204 201 202 204 203 204 206 215 206 191 208 226 236 191
252 114 184 245 246 255 260 252 280 22 313 333 310 326 325 294 257 287 270 322 282 1 345 304 335 115 162 201 170 168 160 185 116 139 145 136 250 289 157 142 119 111 129 112 119 141 165 174 199 188 186 159 159 161 167 170 174 172 164 203 236 187 171 233 80 31 312 253 211 211 207 206 207 206 203 206 209 206 206 207 213 204 199 212 223 234
266 253 225 279 292 294 344 345 283 277 290 272 250 182 228 287 353 331 295 265 282 14 316 62 349 6 57 192 191 127 149 134 184 185 146 162 182 163 192 131 160 134 118 116 101 119 136 169 196 183 197 189 172 155 176 177 175 174 166 183 200 219 196 185 84 54 287 280 244 214 215 209 209 211 208 204 213 214 207 206 207 207 208 212 218 216
240 275 239 231 238 266 279 248 273 227 217 272 324 332 335 351 350 332 305 305 31 298 276 74 27 343 355 328 27 7 99 151 168 168 95 146 149 247 148 166 141 163 135 180 167 110 117 137 168 180 185 206 197 178 165 172 184 171 171 181 189 176 206 173 143 187 234 248 266 249 220 228 211 210 214 208 204 220 216 211 213 197 197 201 209 220
266 261 262 281 276 258 241 269 232 302 310 311 329 312 254 232 229 273 290 302 314 303 304 342 344 306 265 296 23 36 33 65 92 132 245 220 205 229 238 192 195 156 152 120 98 133 172 143 176 171 185 214 207 201 178 182 182 179 172 188 186 172 184 163 164 208 238 235 235 243 241 228 243 226 208 213 201 210 226 220 218 214 194 192 208 216
220 244 265 217 251 279 284 266 275 258 225 225 227 264 289 310 249 185 243 300 273 262 249 266 262 273 324 26 355 50 59 19 30 128 180 210 179 192 259 273 231 158 179 163 166 195 151 167 157 185 194 187 225 229 208 192 185 187 188 185 179 163 170 168 190 205 220 251 247 227 233 255 248 257 242 215 219 213 218 234 228 223 210 207 201 202
224 240 124 297 302 281 267 280 290 298 311 310 295 285 281 263 289 311 279 221 283 301 304 301 325 317 30 27 331 4 16 102 213 219 265 82 149 216 239 244 277 172 174 205 185 174 197 120 194 160 202 212 190 210 233 232 202 192 206 205 187 180 177 182 192 189 207 225 241 226 214 231 239 253 251 247 233 212 212 223 238 236 219 214 206 200
145 261 239 245 260 259 263 292 296 274 254 262 267 249 257 295 296 292 299 314 318 290 290 291 284 275 50 17 357 301 234 247 285 177 187 301 340 89 264 285 307 298 160 171 207 196 233 227 214 215 186 215 260 223 209 223 241 238 224 201 203 193 176 195 211 195 195 190 204 206 201 209 227 226 246 261 255 228 200 207 230 257 242 201 215 210
178 229 239 215 246 288 278 252 262 279 271 253 251 256 241 242 267 309 303 245 222 241 288 270 307 59 350 21 299 294 328 320 47 39 13 23 10 324 307 315 314 299 343 229 238 239 263 269 266 268 254 273 263 247 238 230 217 237 247 255 356 68 318 271 221 289 259 211 194 193 203 209 221 213 215 233 267 243 210 205 215 236 248 241 213 180
240 230 247 229 251 254 257 240 238 268 260 275 15 351 317 264 254 249 221 234 262 241 310 8 337 149 182 230 322 340 317 48 61 105 64 352 307 314 309 309 321 345 327 308 265 270 274 256 259 279 265 264 292 283 278 256 257 228 229 135 219 228 189 228 231 210 239 233 207 193 200 194 219 224 215 217 234 290 241 205 210 226 239 234 219 217
234 241 247 239 237 251 253 271 271 247 240 47 284 269 274 294 268 242 266 303 326 63 238 290 280 297 30 304 267 326 31 58 100 84 129 144 177 260 298 293 309 338 350 330 321 321 305 283 280 268 284 279 273 282 274 260 249 261 243 182 190 189 192 223 222 217 217 216 211 206 202 202 201 219 209 199 202 208 247 263 207 211 230 234 222 221
216 229 242 238 248 259 264 241 256 262 256 240 215 225 237 256 357 342 306 282 268 266 260 249 262 272 243 271 305 286 75 30 352 156 139 79 40 319 290 278 104 319 299 309 312 302 343 322 304 278 266 275 268 270 277 270 268 257 253 253 233 201 190 202 214 216 217 214 209 207 204 199 204 204 205 193 187 185 188 191 159 134 100 9 312 247
227 212 224 262 228 260 260 247 241 222 255 273 272 282 266 210 266 258 277 234 268 273 85 288 315 345 327 300 280 357 348 346 289 85 97 101 59 337 282 263 220 233 299 261 226 29 9 307 284 299 313 284 269 260 252 264 275 275 268 255 242 223 214 221 216 218 220 219 208 201 191 199 204 205 200 184 180 179 177 175 184 200 168 166 183 295
208 227 189 248 236 248 262 263 261 248 260 264 12 277 299 249 219 237 103 272 38 350 186 165 50 26 336 323 292 14 359 279 276 127 67 53 109 9 283 283 319 256 255 6 10 18 38 349 344 310 286 271 274 281 282 278 265 267 275 275 271 267 246 235 228 220 220 213 211 207 208 212 209 211 211 198 187 187 179 164 170 181 178 187 184 193
219 192 201 202 247 234 236 251 256 263 294 303 135 248 250 248 321 347 54 254 86 63 36 32 46 73 17 4 333 331 296 294 297 100 137 185 232 274 308 327 305 346 0 353 325 344 349 354 328 330 324 298 278 259 275 285 278 281 283 277 272 268 267 256 248 229 214 213 205 205 209 208 213 220 220 213 195 191 188 177 171 180 184 177 190 204
226 207 202 209 227 232 254 252 258 249 256 148 317 324 301 287 239 205 266 228 88 83 80 65 13 52 148 173 268 294 295 286 300 96 144 163 247 224 251 286 333 335 343 337 332 360 335 322 308 297 295 292 319 346 3 318 297 301 288 286 280 278 278 275 261 254 242 228 217 209 206 205 204 210 220 220 196 173 161 162 167 168 184 196 199 201
206 203 215 232 228 235 235 249 260 237 136 195 207 258 326 43 350 273 249 80 38 73 61 26 350 290 352 317 330 286 86 56 99 132 238 193 214 185 271 80 287 272 325 333 344 349 312 305 332 338 319 26 25 348 207 289 305 299 319 308 301 292 302 299 275 257 253 231 226 214 209 211 209 202 203 216 207 151 160 176 180 179 185 193 194 197
240 228 219 230 234 237 227 251 253 297 348 347 352 261 258 242 225 275 93 220 82 192 143 187 245 254 263 242 239 279 147 143 144 165 238 221 229 126 278 315 324 337 307 7 342 324 319 313 12 340 17 5 344 343 338 294 250 301 6 350 351 346 342 311 300 276 249 242 232 229 219 211 214 198 187 177 159 136 177 198 181 184 189 183 203 200
228 231 229 222 220 236 236 242 251 245 130 298 43 254 217 256 99 173 171 236 238 182 201 207 220 244 131 271 266 231 150 159 193 206 214 133 194 159 81 14 22 327 342 342 346 344 351 15 51 43 355 329 308 335 306 295 238 290 67 30 19 4 7 346 331 325 300 246 230 218 206 235 234 220 197 190 171 161 192 196 186 192 194 198 208 214
176 239 221 234 215 244 222 232 190 44 166 203 152 305 53 72 123 83 272 227 343 302 251 255 92 40 46 326 313 305 198 148 162 151 142 153 157 102 114 70 301 3 349 2 13 23 38 54 44 38 342 10 314 307 323 296 325 24 38 35 20 29 21 34 41 32 31 11 331 259 154 126 52 125 190 175 161 174 192 195 199 188 197 203 205 174
9 229 3 358 12 249 226 166 171 257 312 226 225 231 139 127 146 160 239 270 229 286 3 286 152 181 185 204 263 283 278 175 172 164 184 158 178 162 129 49 39 24 13 17 20 29 44 60 37 39 26 47 16 355 283 284 340 54 51 33 24 37 35 43 48 48 35 31 23 19 8 139 146 158 152 147 152 176 192 195 171 173 192 205 159 121
239 132 197 228 193 214 228 150 139 163 227 277 222 217 129 113 92 269 276 322 350 81 206 352 12 39 110 158 245 215 237 148 143 150 164 177 195 111 93 83 59 28 28 36 28 19 53 86 94 44 14 44 20 334 327 323 28 43 65 63 55 43 48 52 58 60 61 52 37 24 12 24 43 31 34 144 155 184 203 187 169 174 181 178 148 131
222 237 232 226 98 210 206 92 202 85 359 338 299 96 99 193 171 221 253 117 140 17 50 113 4 355 298 0 229 277 14 111 153 153 154 160 140 122 106 96 71 44 24 33 38 29 40 49 49 32 7 51 24 335 285 316 29 45 48 60 69 74 74 78 68 68 66 59 51 42 39 31 3 52 17 38 108 127 117 104 176 173 146 127 107 100
248 218 255 237 212 186 253 157 166 105 112 23 2 47 40 117 77 257 25 67 78 83 321 76 255 227 202 247 89 57 65 68 116 142 157 158 131 114 106 95 89 58 46 43 43 41 45 40 54 61 320 72 1 354 9 9 20 36 35 45 63 68 74 68 69 72 68 64 60 53 50 45 33 36 33 31 42 47 31 36 74 77 71 69 106 121
335 209 243 333 259 239 99 122 139 144 111 159 57 86 89 37 331 118 129 127 187 203 235 265 357 323 43 81 89 107 136 108 128 146 137 129 143 154 118 99 61 21 55 57 50 47 60 40 35 62 59 59 64 29 10 357 355 9 33 21 62 75 68 75 75 73 76 76 74 73 70 65 51 52 48 54 62 61 49 12 1 84 87 58 9 95
282 247 187 196 227 233 170 176 138 198 199 196 213 111 119 111 143 267 105 246 275 249 97 328 40 297 37 95 124 147 130 137 142 151 148 143 135 117 96 87 74 45 61 50 52 50 57 51 15 58 52 66 74 55 42 46 6 352 359 24 26 96 97 84 81 78 74 78 83 81 75 72 68 61 65 66 66 77 68 53 47 35 63 65 45 61
236 294 298 287 314 19 98 162 199 56 359 165 197 163 199 133 142 189 216 239 267 292 145 182 245 206 119 102 43 112 129 156 150 144 144 130 115 110 117 132 135 142 88 84 84 67 55 40 76 85 76 78 92 89 25 88 68 13 355 342 341 23 96 90 79 72 72 73 74 75 85 86 80 75 74 67 62 60 69 64 46 44 47 62 59 61